Location: Unspecified
(0.0000°N, 0.0000°E)
Time: 04:11:53
(UTC+00:00)

Vanguard 3 - Pass Details

Date: 19 April 2021
Orbit: 507 x 3262 km, 33.4° (Epoch: 17 May)

Event Time Altitude Azimuth Distance (km) Brightness Sun altitude
Rises 18:38:14 0° 223° (SW) 7,220 12.5 -9.6°
Reaches altitude 10° 18:44:14 10° 215° (SW) 6,074 11.9 -11.1°
Maximum altitude 18:59:55 34° 157° (SSE) 3,603 10.1 -14.9°
Enters shadow 19:07:21 20° 110° (ESE) 3,728 9.9 -16.7°
